[[{"header":{"parameterUnit":"m.s-1","parameterCategory":1,"la1":30.2992,"la2":30.254,"lo1":-89.0895,"lo2":-89.0443,"dy":0.0025,"dx":0.0025,"nx":19,"ny":19,"refTime":"2026-03-10T09:00:00:Z","depth":0,"parameterNumber":2,"parameterNumberName":"U-component_of_WINDS"},"data":[0,0,0,-0.118,-0.118,-0.1157,-0.1157,-0.113,-0.113,0,0,0,0,0,0,0,0,0,0,0,-0.119,-0.119,-0.1181,-0.118,-0.1157,-0.1156,-0.113,-0.113,0,0,0,0,0,0,0,0,0,0,0,-0.119,-0.119,-0.119,-0.118,-0.1157,-0.1156,-0.113,-0.1147,0,0,0,0,0,0,0,0,0,0,-0.1169,-0.118,-0.119,-0.119,-0.118,-0.1157,-0.1156,-0.1147,-0.1146,-0.1143,0,-0.1141,0,-0.1135,-0.1129,-0.1129,0,0,0,-0.1178,-0.1181,-0.1173,-0.119,-0.118,-0.1157,-0.1167,-0.1146,-0.1144,-0.114,-0.114,-0.1139,-0.1135,-0.1129,-0.1128,-0.1117,-0.1117,0,0,-0.1179,-0.1187,-0.1174,-0.1172,-0.1176,-0.1167,-0.1166,-0.1145,-0.1146,-0.114,-0.1138,-0.1134,-0.1128,-0.1128,-0.1117,-0.1117,0,0,0,-0.1184,-0.1188,-0.118,-0.1173,-0.1168,-0.1167,-0.1165,-0.1146,-0.1143,-0.1138,-0.1134,-0.1128,-0.1128,-0.1117,-0.1117,-0.1125,0,0,0,-0.1185,-0.1191,-0.118,-0.1185,-0.1169,-0.1157,-0.1167,-0.1145,-0.1142,-0.1134,-0.1128,-0.1128,-0.1117,-0.1117,-0.1125,-0.1128,0,0,0,-0.1191,-0.1191,-0.1189,-0.1185,-0.1176,-0.1157,-0.1153,-0.1144,-0.1139,-0.1129,-0.1128,-0.1117,-0.1117,-0.1125,-0.1128,-0.1127,0,0,0,-0.1199,-0.1197,-0.1189,-0.1186,-0.1176,-0.1163,-0.1153,-0.1143,-0.1135,-0.1128,-0.1117,-0.1117,-0.1125,-0.1127,-0.1127,-0.1128,-0.1129,0,0,-0.1201,-0.1198,-0.1195,-0.1187,-0.1178,-0.1166,-0.1158,-0.1143,-0.1135,-0.1123,-0.1123,-0.1125,-0.1128,-0.1127,-0.1133,-0.1134,0,0,0,-0.1199,-0.1197,-0.1193,-0.1185,-0.1174,-0.1164,-0.115,-0.1144,-0.1134,-0.1131,-0.1125,-0.1126,-0.1125,-0.1125,-0.1126,-0.1125,-0.1117,-0.1117,-0.1117,-0.1213,-0.1203,-0.1198,-0.1185,-0.1177,-0.1162,-0.1155,-0.1145,-0.1137,-0.1136,-0.1133,-0.1138,-0.1138,-0.1139,-0.1138,-0.1132,-0.1132,-0.1133,-0.1133,-0.1216,-0.1212,-0.12,-0.1192,-0.1181,-0.1173,-0.1159,-0.1153,-0.1144,-0.114,-0.1139,-0.1134,-0.114,-0.1139,-0.1133,-0.1133,-0.1133,-0.1133,-0.1133,-0.1224,-0.122,-0.1213,-0.1201,-0.1192,-0.1179,-0.1171,-0.1161,-0.1152,-0.1151,-0.1146,-0.1146,-0.1145,-0.1149,-0.1149,-0.1149,-0.115,-0.115,-0.115,-0.1236,-0.1227,-0.1222,-0.1209,-0.1203,-0.1193,-0.1178,-0.1171,-0.1161,-0.1155,-0.1155,-0.1147,-0.1143,-0.1142,-0.115,-0.115,-0.115,-0.115,-0.115,-0.1242,-0.1239,-0.123,-0.1224,-0.1208,-0.12,-0.1188,-0.1175,-0.1168,-0.1164,-0.1156,-0.1155,-0.1151,-0.115,-0.1149,-0.1159,-0.1159,-0.1159,-0.1159,-0.1249,-0.1246,-0.1235,-0.1225,-0.1214,-0.1202,-0.1192,-0.118,-0.1167,-0.1162,-0.1159,-0.1157,-0.1157,-0.1153,-0.1152,-0.1152,-0.1161,-0.1161,-0.1161,-0.1253,-0.1248,-0.1242,-0.1229,-0.1215,-0.1204,-0.1194,-0.1183,-0.1168,-0.1161,-0.1158,-0.1158,-0.1155,-0.1154,-0.1147,-0.1146,-0.1145,0,0]},{"header":{"parameterUnit":"m.s-1","parameterCategory":1,"la1":30.2992,"la2":30.254,"lo1":-89.0895,"lo2":-89.0443,"dy":0.0025,"dx":0.0025,"nx":19,"ny":19,"refTime":"2026-03-10T09:00:00:Z","depth":0,"parameterNumber":3,"parameterNumberName":"V-component_of_WINDS"},"data":[0,0,0,2.9156,2.9158,2.9248,2.9249,2.9358,2.9359,0,0,0,0,0,0,0,0,0,0,0,2.9126,2.9127,2.9156,2.9158,2.9248,2.9249,2.9358,2.9359,0,0,0,0,0,0,0,0,0,0,0,2.9126,2.9127,2.9127,2.9159,2.9248,2.9249,2.9357,2.9291,0,0,0,0,0,0,0,0,0,0,2.9205,2.9174,2.9126,2.9128,2.9159,2.9248,2.9249,2.9288,2.9295,2.9314,0,2.9331,0,2.9347,2.9366,2.9366,0,0,0,2.916,2.9168,2.9195,2.9128,2.916,2.9248,2.9208,2.9292,2.93,2.9324,2.9333,2.9337,2.9348,2.9366,2.9367,2.9472,2.9472,0,0,2.9155,2.914,2.919,2.9201,2.9187,2.9205,2.9211,2.9297,2.9305,2.9333,2.9339,2.935,2.9367,2.9368,2.9472,2.9472,0,0,0,2.914,2.9137,2.9162,2.9196,2.9213,2.9208,2.9214,2.9302,2.9311,2.9341,2.9351,2.9368,2.9369,2.9471,2.9472,2.9479,0,0,0,2.9137,2.9128,2.916,2.9152,2.9211,2.9258,2.9217,2.9305,2.9316,2.9351,2.9368,2.937,2.9471,2.9471,2.9478,2.9484,0,0,0,2.9121,2.9126,2.9138,2.9151,2.9189,2.9257,2.9272,2.9308,2.9322,2.9366,2.937,2.947,2.9471,2.9477,2.9483,2.951,0,0,0,2.91,2.9141,2.9138,2.9187,2.9188,2.9261,2.9272,2.9326,2.9364,2.9368,2.9471,2.9472,2.9476,2.9482,2.9508,2.9531,2.9538,0,0,2.9143,2.9146,2.9176,2.9176,2.9246,2.9248,2.9319,2.9367,2.9384,2.9441,2.9444,2.9478,2.9483,2.9509,2.9582,2.9587,0,0,0,2.9185,2.9207,2.9228,2.9265,2.9304,2.9338,2.9377,2.9396,2.9446,2.9411,2.9494,2.9497,2.9514,2.9525,2.953,2.9546,2.9476,2.9476,2.9476,2.9225,2.9246,2.9298,2.933,2.9365,2.9407,2.9437,2.9469,2.9477,2.9497,2.9515,2.9556,2.9569,2.9573,2.9589,2.9526,2.9527,2.9527,2.9527,2.9291,2.9327,2.9339,2.9395,2.9417,2.9463,2.9504,2.9509,2.9556,2.9544,2.9559,2.9546,2.9579,2.9594,2.9527,2.9527,2.9527,2.9527,2.9527,2.9321,2.9342,2.9364,2.9421,2.9462,2.9492,2.9537,2.9554,2.957,2.9585,2.9607,2.9607,2.9611,2.9594,2.9594,2.9595,2.9595,2.9595,2.9595,2.9345,2.937,2.9406,2.9452,2.9479,2.9516,2.9558,2.9584,2.9618,2.9627,2.9627,2.9636,2.9577,2.9563,2.9597,2.9597,2.9597,2.9596,2.9596,2.9408,2.9397,2.9453,2.948,2.9536,2.9576,2.9598,2.965,2.9675,2.9697,2.9702,2.9655,2.9658,2.9654,2.9643,2.9696,2.9696,2.9696,2.9696,2.9434,2.9438,2.9501,2.9543,2.9586,2.9612,2.9675,2.9708,2.974,2.9757,2.9751,2.9737,2.9732,2.9739,2.9733,2.9723,2.9795,2.9795,2.9795,2.9475,2.9484,2.9535,2.9568,2.9613,2.9651,2.9712,2.976,2.9794,2.9799,2.9771,2.9766,2.9744,2.9735,2.9741,2.9732,2.9714,0,0]}]]